CAPE
10 10 9 10 11 10 4 2 5 2 2 1 2 1 1 1 0 0 0 0 0 0 0 0 0 0 0 0 0 0 0 0 0 0 0 1 7 0 0 0 8 1 0 0 0
4 10 11 10 10 9 9 2 1 4 3 2 1 2 1 2 0 0 0 0 0 0 0 0 0 0 0 0 0 0 0 0 0 0 1 6 24 1 0 0 0 0 0 0 0
4 4 8 8 8 7 9 5 4 2 1 1 1 1 1 0 0 0 0 0 0 0 0 0 0 0 0 0 0 0 0 0 0 0 0 1 9 28 12 0 0 0 0 0 0
3 4 10 5 8 8 5 2 3 2 1 0 0 0 0 0 0 0 0 0 0 0 0 0 0 0 0 0 0 0 0 0 0 0 0 0 3 4 20 19 0 0 0 0 0
5 6 6 6 6 7 8 2 1 2 1 0 0 0 0 0 0 0 0 0 0 0 0 0 0 0 0 0 0 0 0 0 0 0 0 0 0 0 6 6 7 0 0 0 0
9 3 3 3 3 7 9 3 1 1 1 0 0 0 0 0 0 0 0 0 0 0 0 0 0 0 0 0 0 0 0 0 0 0 0 0 0 0 0 0 0 0 0 0 0
9 6 2 5 1 4 5 2 1 3 0 0 0 0 0 0 0 0 0 0 0 0 0 0 0 0 0 0 0 0 0 0 0 0 0 0 0 0 0 0 0 0 0 0 0
11 8 5 2 2 3 3 3 2 1 0 0 0 0 0 0 0 0 0 0 0 0 0 0 0 0 0 0 0 0 0 0 0 0 0 0 0 0 0 0 0 0 0 0 0
13 3 6 3 2 3 1 0 0 0 0 0 0 0 0 0 0 0 0 0 0 0 0 0 0 0 0 0 0 0 0 0 0 0 0 0 0 0 0 0 0 0 0 0 0
10 9 2 2 2 0 0 0 0 0 0 0 0 0 0 0 0 0 0 0 0 0 0 0 0 0 0 0 0 0 0 0 0 0 0 0 0 0 0 0 0 0 0 0 0
5 6 6 3 2 0 0 0 0 0 0 0 0 0 0 0 0 0 0 0 0 0 0 0 0 0 0 0 0 0 0 0 0 0 0 0 0 0 0 0 0 0 0 0 0
8 5 2 2 0 0 0 0 0 0 0 0 0 0 0 0 0 0 0 0 0 0 0 0 0 0 0 0 0 0 0 0 0 0 0 0 0 0 0 0 0 0 0 0 0
6 3 3 1 0 0 0 0 0 0 0 0 0 0 0 0 0 0 0 0 0 0 0 0 0 0 0 0 0 0 0 0 0 0 0 0 0 0 0 0 0 0 0 0 0
7 4 1 0 0 0 0 0 0 0 0 0 0 0 0 0 0 0 0 0 0 0 0 0 0 0 0 0 0 0 0 0 0 0 0 2 0 0 0 0 0 0 0 0 0
4 1 0 1 0 0 0 0 0 0 5 0 0 0 0 0 0 0 0 0 0 0 0 0 0 0 0 0 0 0 0 2 1 2 4 0 1 0 0 0 0 0 0 0 0
0 0 0 0 0 0 0 0 0 5 4 0 0 0 0 0 0 0 0 0 0 0 0 0 0 1 0 0 0 0 1 4 8 11 20 1 24 0 4 4 0 0 0 0 0
0 0 0 0 0 0 0 0 7 2 0 0 0 0 0 0 0 0 0 0 0 11 8 11 0 0 0 0 3 15 37 39 75 108 81 54 5 4 4 0 1 3 0 0 0
0 0 0 0 0 0 0 0 6 1 1 0 0 0 0 0 0 0 0 0 0 1 14 10 12 31 6 6 17 57 80 141 101 127 65 3 5 10 0 13 0 0 0 0 0
0 0 0 0 0 0 0 1 4 7 0 0 0 0 0 0 0 0 0 0 0 5 62 63 60 30 4 29 65 74 81 73 105 111 92 75 41 43 1 0 0 0 0 0 0
0 0 1 0 0 0 1 0 0 0 0 0 0 0 0 0 3 2 1 4 0 0 2 7 53 38 40 31 27 50 77 94 184 160 119 60 54 65 59 7 1 0 0 4 9
0 0 0 0 0 0 2 1 0 0 0 0 0 0 0 0 0 3 0 1 13 8 18 41 63 39 49 102 117 110 117 179 155 141 221 187 126 67 23 0 40 46 19 15 22
0 0 0 0 0 1 0 0 0 0 0 0 0 0 0 0 0 0 0 9 24 5 27 38 26 144 127 105 158 242 237 234 454 240 217 264 105 33 107 26 102 53 37 40 60
0 0 0 0 4 0 0 0 0 0 0 0 0 0 0 0 1 0 0 2 7 5 37 45 122 168 161 149 98 156 72 168 250 274 280 395 177 178 152 156 106 116 101 73 79
0 0 0 0 0 0 0 0 0 0 0 0 0 0 0 0 0 3 11 17 9 30 30 40 115 119 157 142 166 108 73 47 7 399 293 216 195 85 17 0 171 184 168 131 95
0 0 0 0 1 0 0 0 0 1 0 0 0 0 0 0 1 1 3 7 22 77 32 89 110 115 101 150 167 166 95 115 171 271 217 174 223 163 137 119 180 190 167 146 83
0 0 0 0 0 0 0 0 1 0 0 0 0 0 0 0 0 3 6 15 30 21 28 52 61 85 63 49 80 67 34 74 95 80 82 165 164 93 121 64 100 143 151 169 91
0 0 0 0 0 0 0 0 0 0 0 0 0 0 0 0 0 0 0 0 1 5 20 45 63 113 117 100 74 164 112 93 117 100 77 79 72 88 101 119 171 243 220 294 146
CIN
-0 -0 -0 -0 -1 -0 -0 -0 -0 -0 -0 -0 -0 -0 -0 -0 -0 -0 -0 -0 -0 -0 -0 -0 -0 -0 -0 -0 -0 -0 -0 -0 -0 -0 -0 -0 -0 -0 -0 -0 -0 -0 -0 -0 -0
-0 -0 -0 -0 -0 -0 -0 -0 -0 -0 -0 -0 -0 -0 -0 -0 -0 -0 -0 -0 -0 -0 -0 -0 -0 -0 -0 -0 -0 -0 -0 -0 -0 -0 -0 -0 -1 -2 -0 -0 -0 -0 -0 -0 -0
-0 -0 -0 -0 -0 -0 -1 -0 -0 -0 -0 -0 -0 -0 -0 -0 -0 -0 -0 -0 -0 -0 -0 -0 -0 -0 -0 -0 -0 -0 -0 -0 -0 -0 -0 -0 -0 -2 -1 -0 -0 -0 -0 -0 -0
-0 -0 -0 -0 -0 -0 -0 -0 -0 -0 -0 -0 -0 -0 -0 -0 -0 -0 -0 -0 -0 -0 -0 -0 -0 -0 -0 -0 -0 -0 -0 -0 -0 -0 -0 -0 -0 -1 -1 -1 -0 -0 -0 -0 -0
-0 -0 -0 -0 -0 -0 -0 -0 -0 -0 -0 -0 -0 -0 -0 -0 -0 -0 -0 -0 -0 -0 -0 -0 -0 -0 -0 -0 -0 -0 -0 -0 -0 -0 -0 -0 -0 -0 -0 -0 -1 -0 -0 -0 -0
-0 -0 -0 -0 -0 -0 -0 -0 -0 -0 -0 -0 -0 -0 -0 -0 -0 -0 -0 -0 -0 -0 -0 -0 -0 -0 -0 -0 -0 -0 -0 -0 -0 -0 -0 -0 -0 -0 -0 -0 -0 -0 -0 -0 -0
-0 -0 -0 -0 -0 -0 -0 -0 -0 -0 -0 -0 -0 -0 -0 -0 -0 -0 -0 -0 -0 -0 -0 -0 -0 -0 -0 -0 -0 -0 -0 -0 -0 -0 -0 -0 -0 -0 -0 -0 -0 -0 -0 -0 -3
-0 -0 -0 -0 -0 -0 -0 -0 -0 -0 -0 -0 -0 -0 -0 -0 -0 -0 -0 -0 -0 -0 -0 -0 -0 -0 -0 -0 -0 -0 -0 -0 -0 -0 -0 -0 -0 -0 -0 -0 -0 -0 -0 -0 -0
-0 -0 -0 -0 -0 -0 -0 -0 -0 -0 -0 -0 -0 -0 -0 -0 -0 -0 -0 -0 -0 -0 -0 -0 -0 -0 -0 -0 -0 -0 -0 -0 -0 -0 -0 -0 -0 -0 -0 -0 -0 -0 -0 -0 -0
-0 -0 -0 -0 -0 -0 -0 -0 -0 -0 -0 -0 -0 -0 -0 -0 -0 -0 -0 -0 -0 -0 -0 -0 -0 -0 -0 -0 -0 -0 -0 -0 -0 -0 -0 -0 -0 -0 -0 -0 -0 -0 -0 -0 -0
-0 -0 -0 -0 -0 -0 -0 -0 -0 -0 -0 -0 -0 -0 -0 -0 -0 -0 -0 -0 -0 -0 -0 -0 -0 -0 -0 -0 -0 -0 -0 -0 -0 -0 -0 -0 -0 -0 -0 -0 -0 -0 -0 -0 -0
-0 -0 -0 -0 -0 -0 -0 -0 -0 -0 -0 -0 -0 -0 -0 -0 -0 -0 -0 -0 -0 -0 -0 -0 -0 -0 -0 -0 -0 -0 -0 -0 -0 -0 -0 -0 -0 -0 -0 -0 -0 -0 -0 -0 -0
-0 -0 -0 -0 -0 -0 -0 -0 -0 -0 -0 -0 -0 -0 -0 -0 -0 -0 -0 -0 -0 -0 -0 -0 -0 -0 -0 -0 -0 -0 -0 -0 -0 -0 -0 -0 -0 -0 -0 -0 -0 -0 -0 -0 -0
-0 -0 -0 -0 -0 -0 -0 -0 -0 -0 -0 -0 -0 -0 -0 -0 -0 -0 -0 -0 -0 -0 -0 -0 -0 -0 -0 -0 -0 -0 -0 -0 -0 -0 -0 -0 -0 -0 -0 -0 -0 -0 -0 -0 -0
-0 -0 -0 -0 -0 -0 -0 -0 -0 -0 -1 -0 -0 -0 -0 -0 -0 -0 -0 -0 -0 -0 -0 -0 -0 -0 -0 -0 -0 -0 -0 -0 -0 -0 -0 -0 -0 -0 -0 -0 -0 -0 -0 -0 -0
-0 -0 -0 -0 -0 -0 -0 -0 -0 -0 -0 -0 -0 -0 -0 -0 -0 -0 -0 -0 -0 -0 -0 -0 -0 -0 -0 -0 -0 -0 -0 -0 -0 -0 -0 -0 -0 -0 -0 -1 -0 -0 -0 -0 -0
-0 -0 -0 -0 -0 -0 -0 -0 -0 -0 -0 -0 -0 -0 -0 -0 -0 -0 -0 -0 -0 -0 -0 -0 -0 -0 -0 -0 -0 -0 -0 -0 -0 -0 -0 -0 -0 -0 -1 -0 -0 -0 -0 -0 -0
-0 -0 -0 -0 -0 -0 -0 -0 -0 -0 -0 -0 -0 -0 -0 -0 -0 -0 -0 -0 -0 -0 -0 -0 -0 -0 -20 -0 -0 -0 -0 -0 -0 -0 -0 -0 -0 -0 -0 -0 -0 -0 -0 -0 -0
-0 -0 -0 -0 -0 -0 -0 -0 -0 -0 -0 -0 -0 -0 -0 -0 -0 -0 -0 -0 -0 -0 -0 -0 -0 -3 -24 -0 -0 -0 -0 -0 -0 -0 -0 -0 -0 -5 -0 -9 -0 -0 -0 -0 -0
-0 -0 -0 -0 -0 -0 -0 -0 -0 -0 -0 -0 -0 -0 -0 -0 -0 -0 -0 -0 -0 -0 -0 -0 -0 -0 -3 -2 -1 -0 -0 -0 -0 -0 -0 -0 -0 -0 -7 -6 -0 -0 -0 -0 -0
-0 -0 -0 -0 -0 -0 -0 -0 -0 -0 -0 -0 -0 -0 -0 -0 -0 -0 -0 -0 -1 -0 -0 -0 -0 -0 -1 -0 -0 -0 -0 -0 -0 -0 -0 -0 -0 -0 -40 -0 -4 -0 -0 -0 -0
-0 -0 -0 -0 -0 -0 -0 -0 -0 -0 -0 -0 -0 -0 -0 -0 -0 -0 -0 -0 -2 -2 -0 -0 -2 -0 -0 -0 -0 -0 -0 -0 -0 -0 -0 -0 -0 -26 -0 -23 -1 -0 -4 -0 -0
-0 -0 -0 -0 -16 -0 -0 -0 -0 -0 -0 -0 -0 -0 -0 -0 -0 -0 -0 -0 -0 -0 -0 -1 -0 -0 -0 -0 -66 -2 -17 -9 -1 -0 -0 -0 -0 -3 -2 -0 -4 -8 -0 -2 -1
-0 -0 -0 -0 -0 -0 -0 -0 -0 -0 -0 -0 -0 -0 -0 -0 -0 -0 -0 -0 -1 -0 -37 -15 -0 -0 -0 -0 -4 -2 -32 -18 -16 -0 -0 -0 -0 -29 -39 -0 -3 -1 -0 -0 -7
-0 -0 -0 -0 -0 -0 -0 -0 -0 -0 -0 -0 -0 -0 -0 -0 -0 -0 -0 -0 -0 -0 -3 -0 -0 -0 -0 -0 -0 -0 -0 -0 -0 -0 -0 -0 -0 -0 -0 -0 -0 -0 -0 -0 -4
-0 -0 -0 -0 -0 -0 -0 -0 -0 -0 -0 -0 -0 -0 -0 -0 -0 -0 -0 -0 -0 -0 -0 -0 -0 -0 -3 -1 -0 -2 -10 -1 -0 -1 -0 -0 -0 -0 -0 -0 -0 -0 -1 -0 -1
-0 -0 -0 -0 -0 -0 -0 -0 -0 -0 -0 -0 -0 -0 -0 -0 -0 -0 -0 -0 -0 -0 -0 -0 -0 -0 -0 -0 -1 -0 -0 -0 -0 -0 -0 -0 -0 -0 -1 -1 -3 -1 -50 -0 -0
Wind_Speed
14 15 14 14 14 13 14 13 14 14 13 14 14 15 15 16 17 14 11 6 4 8 7 14 11 12 15 18 21 20 18 20 25 24 19 15 14 13 13 16 26 9 7 7 8
14 14 14 14 14 14 14 14 14 13 14 13 14 14 15 15 16 14 9 7 4 3 12 11 13 14 14 17 19 21 18 26 24 21 21 21 19 14 12 14 21 24 15 4 10
16 15 14 14 14 13 13 13 13 13 13 13 13 15 14 15 15 10 9 8 8 9 13 9 10 10 17 19 19 21 24 23 21 23 24 24 24 12 16 13 15 20 27 13 12
17 17 16 15 15 15 14 13 13 12 12 12 13 15 16 14 3 11 11 8 8 13 9 6 11 14 17 19 20 24 25 22 22 25 25 22 19 21 22 18 16 12 25 21 17
18 17 17 16 15 15 14 14 12 11 11 11 12 13 12 10 6 15 11 9 11 10 6 4 9 10 16 15 18 21 21 20 22 19 23 23 22 23 24 16 11 10 18 28 19
18 18 18 17 16 15 13 13 12 11 12 11 11 11 12 14 9 14 11 9 10 9 2 7 4 8 11 15 13 16 13 18 22 21 19 23 23 22 26 21 21 17 19 27 23
17 18 18 17 17 16 14 13 12 12 11 10 10 10 12 5 3 7 8 10 3 6 9 5 7 10 7 11 15 13 17 18 19 18 21 19 26 28 24 23 22 18 19 21 16
18 16 17 17 17 16 15 14 13 13 11 10 9 12 12 5 7 8 9 8 7 7 8 8 8 12 13 13 9 16 18 19 20 23 22 19 25 25 25 23 24 15 18 16 20
19 18 16 16 16 15 15 17 11 8 9 8 9 12 9 8 11 12 9 9 8 8 7 7 11 14 14 12 15 18 16 18 20 5 8 18 25 19 22 11 12 14 16 15 21
19 18 18 17 14 14 14 13 2 10 9 10 10 8 9 11 10 6 7 7 8 8 10 11 11 13 14 14 14 12 15 13 11 8 14 17 20 19 13 13 15 15 15 16 16
21 19 17 15 15 11 11 6 9 9 11 13 1 9 2 2 4 10 9 10 10 10 14 15 11 14 16 13 12 14 16 16 16 8 10 13 19 19 18 18 16 16 16 15 15
21 19 18 16 15 12 9 6 6 7 11 10 9 9 6 3 7 12 10 12 13 14 14 9 14 16 14 8 11 15 17 17 16 14 13 16 20 20 20 20 19 18 18 17 17
20 19 17 15 13 8 5 5 7 5 9 9 7 10 10 12 12 7 13 14 15 14 15 15 17 6 11 12 14 16 16 16 17 15 15 16 25 25 24 28 24 24 21 20 20
20 17 13 13 5 1 3 5 7 3 8 15 11 9 8 9 12 11 9 15 12 15 15 12 15 4 12 14 14 16 14 15 10 14 14 17 17 18 18 13 14 13 12 13 5
21 19 12 5 13 6 8 8 6 5 8 10 11 8 5 13 5 14 10 13 17 18 12 16 13 10 15 15 13 16 17 10 15 17 19 21 15 16 20 17 9 9 11 13 13
21 20 14 7 9 4 7 5 6 9 6 8 5 8 14 15 14 9 9 14 15 19 19 23 19 16 16 15 12 13 13 15 18 17 18 22 19 18 16 15 13 9 8 7 6
23 17 10 9 7 8 7 8 9 9 5 5 6 10 12 13 12 14 15 17 16 18 19 22 23 23 21 18 18 13 15 14 17 16 17 18 7 12 6 5 2 15 11 8 6
23 14 9 10 7 6 7 10 12 5 6 6 7 12 15 15 15 12 15 16 17 20 17 18 19 17 17 15 19 17 16 13 18 17 18 4 8 8 7 12 8 6 9 5 9
24 7 9 5 6 5 9 10 11 10 5 8 12 16 17 11 4 10 13 17 18 18 17 16 20 11 5 11 14 17 18 19 15 19 18 21 27 25 15 12 8 10 10 10 7
7 6 8 5 3 7 10 12 14 1 8 10 14 10 14 12 9 13 13 8 4 11 12 16 19 17 13 13 16 18 17 15 7 14 21 19 22 15 18 15 15 13 10 10 5
7 5 7 2 4 8 9 12 8 8 8 8 12 15 16 15 17 18 17 16 10 10 12 13 16 19 18 19 20 15 17 20 19 15 15 17 13 14 11 3 9 11 7 6 13
5 5 5 3 8 5 8 7 3 12 13 15 13 16 16 16 19 20 21 20 8 10 15 14 7 16 21 18 17 16 22 18 11 11 14 17 18 6 1 7 11 7 7 13 12
7 7 5 4 6 6 10 12 13 12 13 8 10 11 11 14 13 14 14 13 10 13 11 9 9 14 18 19 7 14 18 19 19 18 22 17 20 14 14 18 10 12 10 12 13
5 5 4 6 2 6 10 14 9 5 10 13 11 14 15 17 17 15 18 14 6 10 9 8 15 20 17 22 11 9 13 15 12 13 19 20 24 11 14 15 30 11 16 12 11
1 2 4 6 6 8 10 13 16 13 6 9 8 12 12 13 15 17 19 18 15 11 7 12 19 21 22 25 24 26 26 24 23 22 20 19 25 20 24 22 17 19 19 15 11
5 5 3 12 12 11 9 11 14 12 12 16 16 15 14 16 18 20 21 18 17 17 19 16 18 20 24 24 25 25 26 23 25 24 24 26 28 25 28 24 20 21 18 13 13
3 2 5 9 10 9 10 11 14 16 10 8 10 13 15 16 17 18 19 18 17 17 16 15 11 13 17 19 16 15 21 22 20 20 21 22 23 22 19 21 18 6 10 17 13
Wind_Direction
340 338 337 336 333 330 327 325 321 319 317 313 314 314 312 312 300 246 264 58 34 358 273 269 255 245 231 244 239 234 245 248 248 251 251 253 214 202 248 220 285 253 279 335 336
338 336 333 333 330 330 327 323 319 314 311 310 309 310 309 315 292 257 101 124 140 279 240 232 232 226 233 229 232 229 238 244 254 261 263 260 251 203 206 240 218 287 257 194 348
335 334 332 332 329 323 320 321 316 312 309 309 308 305 306 304 260 96 123 155 209 246 258 271 275 247 241 237 229 226 243 255 254 253 260 267 260 249 216 222 247 214 273 319 315
334 333 332 329 327 325 323 317 311 306 304 305 307 305 307 274 308 99 143 175 212 265 247 227 233 232 239 237 228 250 246 257 265 269 271 268 274 267 262 236 209 258 236 268 295
332 329 326 326 324 322 319 316 309 302 297 295 295 303 291 224 239 126 154 181 223 240 276 262 248 241 249 250 250 242 256 261 266 258 276 275 251 255 261 256 224 235 257 247 259
330 329 327 324 323 320 317 312 306 300 293 288 289 299 250 258 90 138 195 183 258 245 254 275 318 339 293 273 260 272 261 268 258 255 255 257 260 262 256 261 251 224 248 258 236
328 327 327 323 321 320 316 311 300 291 282 283 288 279 264 284 164 157 190 226 229 267 267 220 293 268 318 270 252 264 271 260 255 261 252 258 257 250 255 260 252 232 241 252 235
328 328 325 322 321 318 314 307 293 277 265 265 270 265 265 180 197 206 217 234 224 243 266 297 268 276 279 277 258 251 250 256 246 231 235 238 257 252 246 245 246 243 250 244 221
329 326 321 321 319 316 314 306 286 242 228 223 234 229 257 111 213 220 220 241 185 228 240 272 258 256 261 245 250 227 252 255 243 176 258 249 255 258 253 218 243 255 256 250 251
329 325 320 315 312 312 309 297 166 160 197 205 260 251 238 206 194 231 217 256 247 243 237 228 238 242 228 242 255 288 248 223 268 226 196 250 256 251 251 207 238 246 237 251 247
330 324 318 311 306 303 297 200 204 194 206 269 100 264 291 173 219 227 223 218 236 241 256 217 251 240 251 254 285 316 290 285 288 269 273 263 273 272 258 242 233 238 240 244 242
333 327 320 309 304 302 272 289 32 331 293 205 247 253 273 242 251 223 206 233 220 251 231 250 244 257 276 290 274 266 267 266 266 263 271 279 273 274 272 264 256 249 248 225 228
334 328 321 311 313 273 286 23 308 308 259 166 214 221 204 210 243 254 199 226 255 254 253 258 283 4 275 243 243 252 261 276 283 299 288 285 268 255 250 237 245 242 241 242 212
332 328 321 319 286 187 197 335 301 326 269 151 189 198 190 222 234 234 209 240 245 260 281 265 288 233 253 241 259 271 277 284 267 274 267 280 290 284 285 232 215 239 220 236 177
336 328 316 269 318 252 3 316 322 239 275 141 142 90 195 219 33 199 223 242 254 275 243 262 239 223 250 260 270 285 300 284 275 272 280 267 263 270 253 246 246 231 196 197 185
340 334 320 212 237 354 306 303 237 235 251 160 181 214 219 215 242 247 202 227 273 278 269 268 263 256 252 281 284 286 281 261 259 253 252 257 251 264 262 199 168 180 183 208 201
335 329 289 310 327 339 307 232 241 251 92 190 232 218 247 266 254 231 245 253 240 253 245 240 241 242 241 245 253 230 257 263 256 241 245 250 248 273 355 73 298 169 204 206 228
325 311 214 278 306 305 266 239 257 303 306 107 287 278 265 271 268 254 262 259 255 255 271 281 278 273 219 219 268 258 243 272 284 286 296 346 246 251 247 185 165 300 269 225 222
312 213 248 207 294 282 259 241 258 339 18 311 303 269 264 249 248 292 259 267 277 289 264 261 271 294 352 273 243 263 271 261 291 269 270 278 284 282 172 171 198 212 205 214 229
302 255 250 111 286 263 251 261 297 82 298 286 280 291 287 295 248 239 269 281 283 295 304 286 286 276 282 241 270 265 277 273 246 263 263 259 259 270 196 188 190 199 207 229 250
267 252 95 58 241 242 254 277 322 308 312 276 278 286 285 290 286 284 285 284 238 247 281 267 276 277 273 258 250 247 240 253 260 246 254 274 286 67 65 49 224 199 206 250 263
290 261 107 199 255 248 270 357 357 287 274 266 259 272 276 283 281 280 279 279 265 230 272 280 294 277 282 283 272 242 269 231 244 262 271 277 271 189 27 240 223 218 229 260 285
310 291 134 263 272 317 327 299 292 277 288 277 269 279 285 285 285 276 280 292 293 301 297 327 257 278 281 269 354 321 320 306 277 249 250 260 262 270 185 206 220 228 255 276 285
295 295 184 207 293 301 320 301 293 297 285 276 279 287 282 274 265 267 274 274 273 278 64 327 275 273 277 286 277 232 218 258 289 270 266 258 267 251 265 288 274 270 246 283 292
282 23 360 304 292 312 297 295 294 302 270 280 278 273 274 285 294 295 296 290 276 264 246 265 267 272 276 273 272 270 264 251 239 259 260 266 281 266 269 278 283 285 280 274 275
314 336 332 286 276 279 277 274 307 311 321 293 294 294 292 289 295 299 292 287 290 296 285 276 272 275 279 281 279 274 270 278 277 277 270 263 254 265 266 271 279 299 269 267 259
24 212 278 285 264 269 285 317 308 309 295 287 291 294 287 297 310 306 299 290 281 279 285 287 275 272 279 285 284 279 260 264 274 270 266 255 260 264 273 268 274 308 281 284 307